| time (UTC) | temp F | wind direction | speed MPH | gust MPH | rain 1hr in | rain 24hr in | rain mn in | humidity % | barometer mb |
| 20260510160305 | 56 | 215 | 2.0 | 9.0 | 0.00 | 0.10 | 0.08 | 83 | 1011.3 |
| 20260510155804 | 56 | 184 | 3.0 | 9.0 | 0.00 | 0.10 | 0.08 | 85 | 1011.5 |
| 20260510155306 | 56 | 358 | 2.0 | 8.0 | 0.01 | 0.10 | 0.08 | 86 | 1011.3 |
| 20260510154804 | 55 | 211 | 4.0 | 8.0 | 0.02 | 0.10 | 0.08 | 86 | 1011.3 |
| 20260510153305 | 55 | 146 | 2.0 | 8.0 | 0.02 | 0.10 | 0.08 | 89 | 1011.2 |
| 20260510152804 | 55 | 167 | 2.0 | 7.0 | 0.02 | 0.10 | 0.08 | 89 | 1011.3 |
| 20260510152307 | 56 | 180 | 3.0 | 7.0 | 0.02 | 0.10 | 0.08 | 89 | 1011.2 |
| 20260510151804 | 56 | 206 | 3.0 | 9.0 | 0.02 | 0.10 | 0.08 | 91 | 1011.1 |
| 20260510151304 | 55 | 213 | 3.0 | 12.0 | 0.02 | 0.10 | 0.08 | 91 | 1011.3 |
| 20260510150804 | 56 | 222 | 3.0 | 9.0 | 0.02 | 0.10 | 0.08 | 92 | 1011.1 |
| 20260510150304 | 54 | 151 | 4.0 | 7.0 | 0.02 | 0.10 | 0.08 | 92 | 1010.9 |
| 20260510145804 | 54 | 143 | 3.0 | 7.0 | 0.02 | 0.10 | 0.08 | 92 | 1010.8 |
| 20260510145306 | 55 | 188 | 3.0 | 8.0 | 0.01 | 0.10 | 0.07 | 90 | 1011.1 |
| 20260510144304 | 56 | 182 | 3.0 | 7.0 | 0.00 | 0.08 | 0.06 | 84 | 1011.0 |
| 20260510143303 | 56 | 295 | 1.0 | 5.0 | 0.00 | 0.08 | 0.06 | 88 | 1010.9 |
| 20260510142804 | 55 | 327 | 2.0 | 5.0 | 0.00 | 0.08 | 0.06 | 89 | 1010.9 |
| 20260510142306 | 54 | 306 | 2.0 | 5.0 | 0.00 | 0.08 | 0.06 | 91 | 1011.0 |
| 20260510141304 | 53 | 300 | 2.0 | 2.0 | 0.00 | 0.08 | 0.06 | 92 | 1011.0 |
| 20260510140803 | 53 | 310 | 1.0 | 2.0 | 0.00 | 0.08 | 0.06 | 91 | 1011.0 |
| 20260510140304 | 53 | 313 | 1.0 | 1.0 | 0.00 | 0.08 | 0.06 | 91 | 1011.1 |
| 20260510135804 | 53 | 313 | 1.0 | 1.0 | 0.00 | 0.08 | 0.06 | 91 | 1011.0 |
| 20260510135306 | 52 | 303 | 1.0 | 2.0 | 0.00 | 0.08 | 0.06 | 93 | 1011.2 |
| 20260510134804 | 52 | 314 | 1.0 | 5.0 | 0.00 | 0.08 | 0.06 | 92 | 1010.9 |
| 20260510134304 | 53 | 308 | 1.0 | 2.0 | 0.00 | 0.08 | 0.06 | 92 | 1011.1 |
| 20260510133804 | 53 | 212 | 2.0 | 2.0 | 0.00 | 0.08 | 0.06 | 91 | 1011.0 |
| 20260510133304 | 52 | 255 | 1.0 | 3.0 | 0.00 | 0.08 | 0.06 | 92 | 1011.1 |
| 20260510132306 | 53 | 312 | 1.0 | 3.0 | 0.00 | 0.08 | 0.06 | 93 | 1011.1 |
| 20260510131804 | 53 | 299 | 1.0 | 3.0 | 0.00 | 0.08 | 0.06 | 92 | 1011.0 |
| 20260510131305 | 53 | 202 | 1.0 | 3.0 | 0.00 | 0.08 | 0.06 | 91 | 1010.9 |
| 20260510130804 | 53 | 239 | 2.0 | 6.0 | 0.00 | 0.08 | 0.06 | 94 | 1010.8 |
| 20260510130304 | 52 | 323 | 1.0 | 6.0 | 0.00 | 0.08 | 0.06 | 92 | 1010.7 |
| 20260510125804 | 52 | 159 | 3.0 | 6.0 | 0.00 | 0.08 | 0.06 | 92 | 1010.6 |
| 20260510124804 | 51 | 167 | 1.0 | 2.0 | 0.00 | 0.08 | 0.06 | 96 | 1011.1 |
| 20260510124304 | 51 | 288 | 1.0 | 3.0 | 0.00 | 0.08 | 0.06 | 98 | 1011.0 |
| 20260510123804 | 50 | 306 | 1.0 | 3.0 | 0.00 | 0.08 | 0.06 | 98 | 1011.1 |
| 20260510123305 | 51 | 282 | 2.0 | 5.0 | 0.00 | 0.08 | 0.06 | 97 | 1011.2 |
| 20260510122804 | 51 | 227 | 2.0 | 5.0 | 0.00 | 0.08 | 0.06 | 98 | 1011.2 |
| 20260510122306 | 51 | 280 | 0.0 | 2.0 | 0.00 | 0.08 | 0.06 | 98 | 1010.9 |
| 20260510121804 | 51 | 307 | 1.0 | 2.0 | 0.00 | 0.08 | 0.06 | 98 | 1011.0 |
| 20260510121305 | 50 | 293 | 1.0 | 8.0 | 0.00 | 0.08 | 0.06 | 97 | 1011.2 |
| 20260510120804 | 50 | 248 | 2.0 | 3.0 | 0.00 | 0.08 | 0.06 | 96 | 1010.9 |
| 20260510120304 | 50 | 304 | 1.0 | 2.0 | 0.00 | 0.08 | 0.06 | 97 | 1011.1 |
| 20260510115804 | 49 | 281 | 1.0 | 3.0 | 0.00 | 0.08 | 0.06 | 97 | 1010.6 |
| 20260510115306 | 49 | 282 | 1.0 | 3.0 | 0.00 | 0.08 | 0.06 | 99 | 1010.6 |
| 20260510114805 | 49 | 282 | 1.0 | 3.0 | 0.00 | 0.08 | 0.06 | 99 | 1010.9 |
| 20260510114305 | 49 | 319 | 0.0 | 1.0 | 0.00 | 0.08 | 0.06 | 99 | 1011.1 |
| 20260510113804 | 49 | 309 | 1.0 | 1.0 | 0.00 | 0.08 | 0.06 | 99 | 1011.2 |
| 20260510113304 | 48 | 340 | 0.0 | 1.0 | 0.00 | 0.08 | 0.06 | 99 | 1010.9 |
| 20260510112804 | 48 | 315 | 1.0 | 3.0 | 0.00 | 0.08 | 0.06 | 99 | 1010.9 |
| 20260510111304 | 48 | 287 | 0.0 | 1.0 | 0.00 | 0.08 | 0.06 | 99 | 1010.4 |
| 20260510110803 | 47 | 289 | 0.0 | 1.0 | 0.00 | 0.08 | 0.06 | 99 | 1010.3 |
| 20260510105804 | 47 | 218 | 0.0 | 1.0 | 0.00 | 0.08 | 0.06 | 99 | 1010.7 |
| 20260510105306 | 47 | 295 | 0.0 | 1.0 | 0.00 | 0.08 | 0.06 | 99 | 1010.9 |
| 20260510104804 | 47 | 313 | 1.0 | 3.0 | 0.00 | 0.08 | 0.06 | 99 | 1010.5 |
| 20260510104304 | 47 | 291 | 2.0 | 2.0 | 0.00 | 0.08 | 0.06 | 99 | 1010.1 |
| 20260510103304 | 47 | 297 | 3.0 | 5.0 | 0.00 | 0.08 | 0.06 | 99 | 1009.6 |
| 20260510102804 | 47 | 348 | 0.0 | 0.0 | 0.00 | 0.08 | 0.06 | 99 | 1009.8 |
| 20260510102306 | 47 | 304 | 0.0 | 0.0 | 0.00 | 0.08 | 0.06 | 99 | 1010.0 |
| 20260510101804 | 47 | 303 | 0.0 | 2.0 | 0.00 | 0.08 | 0.06 | 99 | 1010.2 |
| 20260510100804 | 46 | 342 | 1.0 | 1.0 | 0.00 | 0.08 | 0.06 | 99 | 1010.3 |
| 20260510095804 | 46 | 342 | 0.0 | 0.0 | 0.00 | 0.08 | 0.06 | 99 | 1009.6 |
| 20260510095306 | 46 | 334 | 0.0 | 1.0 | 0.00 | 0.08 | 0.06 | 99 | 1010.0 |
| 20260510094804 | 46 | 207 | 0.0 | 1.0 | 0.00 | 0.08 | 0.06 | 99 | 1009.7 |
| 20260510094304 | 46 | 203 | 0.0 | 1.0 | 0.00 | 0.08 | 0.06 | 99 | 1009.7 |
| 20260510093804 | 46 | 290 | 0.0 | 1.0 | 0.00 | 0.08 | 0.06 | 99 | 1009.2 |
| 20260510093304 | 46 | 302 | 1.0 | 1.0 | 0.00 | 0.08 | 0.06 | 99 | 1009.5 |
| 20260510092804 | 46 | 350 | 0.0 | 1.0 | 0.01 | 0.08 | 0.06 | 99 | 1009.3 |
| 20260510092306 | 46 | 352 | 1.0 | 1.0 | 0.01 | 0.08 | 0.06 | 99 | 1009.4 |
| 20260510091803 | 46 | 351 | 0.0 | 1.0 | 0.02 | 0.08 | 0.06 | 99 | 1009.6 |
| 20260510090804 | 46 | 354 | 0.0 | 1.0 | 0.04 | 0.08 | 0.06 | 99 | 1009.5 |
| 20260510090303 | 46 | 329 | 0.0 | 0.0 | 0.05 | 0.08 | 0.06 | 99 | 1009.5 |
| 20260510085804 | 46 | 326 | 0.0 | 0.0 | 0.06 | 0.08 | 0.06 | 99 | 1009.2 |
| 20260510085306 | 46 | 328 | 0.0 | 1.0 | 0.06 | 0.08 | 0.06 | 99 | 1009.3 |
| 20260510084804 | 46 | 304 | 1.0 | 3.0 | 0.06 | 0.08 | 0.06 | 99 | 1009.3 |
| 20260510084304 | 46 | 349 | 0.0 | 0.0 | 0.06 | 0.08 | 0.06 | 99 | 1009.3 |
| 20260510083804 | 46 | 22 | 0.0 | 0.0 | 0.06 | 0.08 | 0.06 | 99 | 1009.3 |
| 20260510083304 | 46 | 21 | 0.0 | 0.0 | 0.06 | 0.08 | 0.06 | 99 | 1009.8 |
| 20260510082804 | 46 | 21 | 0.0 | 0.0 | 0.05 | 0.07 | 0.05 | 99 | 1009.8 |
| 20260510082306 | 47 | 21 | 0.0 | 0.0 | 0.05 | 0.07 | 0.05 | 99 | 1010.0 |
| 20260510081804 | 47 | 21 | 0.0 | 0.0 | 0.04 | 0.06 | 0.04 | 99 | 1010.1 |
| 20260510081304 | 47 | 309 | 0.0 | 0.0 | 0.03 | 0.05 | 0.03 | 99 | 1010.1 |
| 20260510075306 | 47 | 309 | 0.0 | 0.0 | 0.00 | 0.02 | 0.00 | 98 | 1009.6 |
| 20260510074304 | 47 | 309 | 0.0 | 0.0 | 0.00 | 0.02 | 0.00 | 98 | 1009.7 |
| 20260510073804 | 47 | 310 | 0.0 | 0.0 | 0.00 | 0.02 | 0.00 | 97 | 1009.8 |
| 20260510073304 | 47 | 309 | 0.0 | 2.0 | 0.00 | 0.02 | 0.00 | 97 | 1009.9 |
| 20260510072306 | 47 | 309 | 0.0 | 0.0 | 0.00 | 0.02 | 0.00 | 97 | 1009.9 |
| 20260510071805 | 47 | 309 | 0.0 | 1.0 | 0.00 | 0.02 | 0.00 | 97 | 1009.9 |
| 20260510071304 | 47 | 309 | 0.0 | 1.0 | 0.00 | 0.02 | 0.00 | 97 | 1010.1 |
| 20260510070804 | 47 | 310 | 0.0 | 1.0 | 0.00 | 0.02 | 0.00 | 96 | 1010.0 |
| 20260510065803 | 47 | 272 | 0.0 | 1.0 | 0.00 | 0.02 | 0.00 | 96 | 1010.0 |
| 20260510065306 | 47 | 272 | 1.0 | 2.0 | 0.00 | 0.02 | 0.00 | 96 | 1010.0 |
| 20260510064304 | 47 | 322 | 0.0 | 0.0 | 0.00 | 0.02 | 0.00 | 97 | 1009.7 |
| 20260510063304 | 47 | 312 | 0.0 | 0.0 | 0.00 | 0.02 | 0.00 | 97 | 1009.7 |
| 20260510062805 | 47 | 312 | 0.0 | 3.0 | 0.00 | 0.02 | 0.00 | 96 | 1009.6 |
| 20260510062306 | 47 | 308 | 2.0 | 2.0 | 0.00 | 0.02 | 0.00 | 96 | 1009.8 |
| 20260510061804 | 47 | 357 | 1.0 | 2.0 | 0.00 | 0.02 | 0.00 | 96 | 1009.9 |
| 20260510061304 | 47 | 332 | 1.0 | 2.0 | 0.00 | 0.02 | 0.00 | 96 | 1009.7 |
| 20260510060804 | 47 | 332 | 1.0 | 2.0 | 0.00 | 0.02 | 0.00 | 95 | 1009.8 |
| 20260510060303 | 47 | 227 | 1.0 | 2.0 | 0.00 | 0.02 | 0.00 | 95 | 1009.9 |
| 20260510055804 | 47 | 346 | 0.0 | 3.0 | 0.00 | 0.02 | 0.00 | 95 | 1009.9 |
| 20260510055307 | 47 | 258 | 1.0 | 5.0 | 0.00 | 0.02 | 0.00 | 95 | 1009.9 |
| 20260510054804 | 47 | 11 | 1.0 | 3.0 | 0.00 | 0.02 | 0.00 | 95 | 1010.1 |
| 20260510054304 | 47 | 294 | 1.0 | 2.0 | 0.00 | 0.02 | 0.00 | 95 | 1010.1 |
| 20260510053804 | 47 | 0 | 1.0 | 3.0 | 0.00 | 0.02 | 0.00 | 96 | 1010.0 |
| 20260510052804 | 47 | 158 | 3.0 | 6.0 | 0.00 | 0.02 | 0.00 | 96 | 1010.1 |
| 20260510052306 | 47 | 179 | 2.0 | 6.0 | 0.00 | 0.02 | 0.00 | 96 | 1010.1 |
| 20260510051804 | 47 | 224 | 2.0 | 10.0 | 0.00 | 0.02 | 0.00 | 96 | 1010.0 |
| 20260510051304 | 47 | 154 | 5.0 | 8.0 | 0.00 | 0.02 | 0.00 | 95 | 1009.9 |
| 20260510050304 | 47 | 109 | 2.0 | 8.0 | 0.00 | 0.02 | 0.00 | 95 | 1010.2 |
| 20260510045804 | 47 | 188 | 2.0 | 5.0 | 0.01 | 0.02 | 0.00 | 94 | 1010.3 |
| 20260510045306 | 47 | 242 | 1.0 | 8.0 | 0.01 | 0.02 | 0.00 | 94 | 1010.2 |
| 20260510044803 | 47 | 184 | 2.0 | 5.0 | 0.01 | 0.02 | 0.00 | 95 | 1010.1 |
| 20260510043809 | 47 | 318 | 1.0 | 3.0 | 0.01 | 0.02 | 0.00 | 95 | 1009.9 |
| 20260510043304 | 47 | 302 | 3.0 | 7.0 | 0.01 | 0.02 | 0.00 | 95 | 1009.8 |
| 20260510042804 | 47 | 349 | 1.0 | 5.0 | 0.01 | 0.02 | 0.00 | 95 | 1009.8 |
| 20260510042306 | 47 | 184 | 1.0 | 6.0 | 0.01 | 0.02 | 0.00 | 95 | 1009.7 |
| 20260510041804 | 47 | 188 | 2.0 | 5.0 | 0.01 | 0.02 | 0.00 | 95 | 1009.8 |
| 20260510040823 | 47 | 134 | 1.0 | 5.0 | 0.01 | 0.02 | 0.00 | 95 | 1009.7 |
| 20260510040305 | 47 | 179 | 2.0 | 7.0 | 0.01 | 0.02 | 0.00 | 94 | 1009.8 |
| 20260510035803 | 47 | 146 | 5.0 | 7.0 | 0.00 | 0.01 | 0.01 | 94 | 1010.1 |
| 20260510035306 | 47 | 141 | 1.0 | 3.0 | 0.00 | 0.01 | 0.01 | 94 | 1010.0 |
| 20260510034804 | 47 | 9 | 0.0 | 2.0 | 0.00 | 0.01 | 0.01 | 94 | 1010.2 |
| 20260510034304 | 47 | 286 | 1.0 | 2.0 | 0.00 | 0.01 | 0.01 | 94 | 1010.3 |
| 20260510033804 | 47 | 132 | 2.0 | 6.0 | 0.00 | 0.01 | 0.01 | 94 | 1010.1 |
| 20260510033304 | 47 | 343 | 1.0 | 5.0 | 0.00 | 0.01 | 0.01 | 94 | 1010.1 |
| 20260510032306 | 47 | 148 | 1.0 | 5.0 | 0.00 | 0.01 | 0.01 | 94 | 1010.0 |
| 20260510031803 | 47 | 105 | 2.0 | 3.0 | 0.00 | 0.01 | 0.01 | 94 | 1010.0 |
| 20260510031303 | 47 | 289 | 0.0 | 3.0 | 0.00 | 0.01 | 0.01 | 94 | 1010.0 |
| 20260510030803 | 47 | 187 | 1.0 | 3.0 | 0.00 | 0.01 | 0.01 | 94 | 1009.9 |
| 20260510030304 | 46 | 114 | 1.0 | 2.0 | 0.00 | 0.01 | 0.01 | 94 | 1010.0 |
| 20260510025804 | 47 | 17 | 0.0 | 2.0 | 0.00 | 0.01 | 0.01 | 94 | 1010.3 |
| 20260510025306 | 47 | 273 | 1.0 | 5.0 | 0.00 | 0.01 | 0.01 | 93 | 1010.4 |
| 20260510024804 | 47 | 56 | 2.0 | 5.0 | 0.00 | 0.01 | 0.01 | 93 | 1010.3 |
| 20260510024304 | 47 | 188 | 0.0 | 8.0 | 0.00 | 0.01 | 0.01 | 94 | 1010.4 |
| 20260510023304 | 47 | 158 | 1.0 | 5.0 | 0.00 | 0.01 | 0.01 | 93 | 1010.4 |
| 20260510022804 | 47 | 282 | 1.0 | 6.0 | 0.00 | 0.01 | 0.01 | 93 | 1010.4 |
| 20260510022306 | 47 | 252 | 2.0 | 6.0 | 0.00 | 0.01 | 0.01 | 93 | 1010.2 |
| 20260510021804 | 47 | 179 | 1.0 | 3.0 | 0.00 | 0.01 | 0.01 | 93 | 1010.2 |
| 20260510020303 | 47 | 154 | 3.0 | 8.0 | 0.00 | 0.01 | 0.01 | 93 | 1010.4 |
| 20260510015804 | 47 | 232 | 2.0 | 5.0 | 0.00 | 0.01 | 0.01 | 93 | 1010.4 |
| 20260510015306 | 46 | 169 | 2.0 | 3.0 | 0.00 | 0.01 | 0.01 | 93 | 1010.5 |
| 20260510014803 | 47 | 117 | 0.0 | 2.0 | 0.00 | 0.01 | 0.01 | 93 | 1010.5 |
| 20260510014304 | 47 | 289 | 1.0 | 5.0 | 0.00 | 0.01 | 0.01 | 92 | 1010.6 |
| 20260510013804 | 47 | 345 | 1.0 | 3.0 | 0.00 | 0.01 | 0.01 | 92 | 1010.6 |
| 20260510013303 | 47 | 139 | 1.0 | 2.0 | 0.00 | 0.01 | 0.01 | 92 | 1010.7 |
| 20260510012803 | 47 | 141 | 1.0 | 5.0 | 0.00 | 0.01 | 0.01 | 92 | 1010.8 |
| 20260510011303 | 47 | 182 | 2.0 | 6.0 | 0.00 | 0.01 | 0.01 | 91 | 1010.9 |
| 20260510005804 | 47 | 170 | 1.0 | 3.0 | 0.00 | 0.01 | 0.01 | 92 | 1010.7 |
| 20260510004804 | 47 | 197 | 1.0 | 3.0 | 0.00 | 0.01 | 0.01 | 92 | 1010.8 |
| 20260510004303 | 46 | 103 | 1.0 | 2.0 | 0.00 | 0.01 | 0.01 | 92 | 1010.8 |
| 20260510003804 | 47 | 239 | 1.0 | 2.0 | 0.00 | 0.01 | 0.01 | 93 | 1010.8 |
| 20260510003304 | 46 | 317 | 1.0 | 2.0 | 0.00 | 0.01 | 0.01 | 92 | 1010.6 |
| 20260510002804 | 46 | 315 | 0.0 | 2.0 | 0.00 | 0.01 | 0.01 | 92 | 1010.5 |
| 20260510002306 | 46 | 131 | 0.0 | 2.0 | 0.00 | 0.01 | 0.01 | 92 | 1010.5 |
| 20260510001804 | 46 | 118 | 1.0 | 2.0 | 0.00 | 0.01 | 0.01 | 92 | 1010.3 |
| 20260510001304 | 46 | 234 | 1.0 | 1.0 | 0.00 | 0.01 | 0.01 | 92 | 1010.5 |
| 20260510000804 | 46 | 316 | 0.0 | 0.0 | 0.00 | 0.01 | 0.01 | 92 | 1010.6 |
| 20260510000304 | 46 | 316 | 0.0 | 0.0 | 0.00 | 0.01 | 0.01 | 92 | 1010.7 |
| 20260509235804 | 46 | 315 | 0.0 | 1.0 | 0.00 | 0.01 | 0.01 | 92 | 1010.5 |
| 20260509235306 | 46 | 342 | 0.0 | 1.0 | 0.00 | 0.01 | 0.01 | 91 | 1010.4 |
| 20260509234304 | 47 | 59 | 1.0 | 2.0 | 0.00 | 0.01 | 0.01 | 91 | 1010.5 |
| 20260509233803 | 47 | 126 | 2.0 | 2.0 | 0.00 | 0.01 | 0.01 | 90 | 1010.4 |
| 20260509233304 | 47 | 11 | 0.0 | 3.0 | 0.00 | 0.01 | 0.01 | 90 | 1010.4 |
| 20260509232804 | 47 | 310 | 0.0 | 5.0 | 0.00 | 0.01 | 0.01 | 90 | 1010.4 |
| 20260509232306 | 47 | 118 | 1.0 | 3.0 | 0.00 | 0.01 | 0.01 | 91 | 1010.3 |
| 20260509231803 | 47 | 124 | 1.0 | 3.0 | 0.00 | 0.01 | 0.01 | 91 | 1010.4 |
| 20260509231304 | 47 | 211 | 1.0 | 3.0 | 0.00 | 0.01 | 0.01 | 91 | 1010.4 |
| 20260509230304 | 47 | 268 | 1.0 | 3.0 | 0.00 | 0.01 | 0.01 | 91 | 1010.4 |
| 20260509225804 | 47 | 177 | 1.0 | 3.0 | 0.00 | 0.01 | 0.01 | 91 | 1010.2 |
| 20260509225306 | 47 | 349 | 1.0 | 1.0 | 0.00 | 0.01 | 0.01 | 91 | 1010.1 |
| 20260509223804 | 47 | 297 | 1.0 | 3.0 | 0.00 | 0.01 | 0.01 | 91 | 1010.2 |
| 20260509223304 | 47 | 80 | 1.0 | 3.0 | 0.00 | 0.01 | 0.01 | 90 | 1010.4 |
| 20260509222804 | 47 | 236 | 1.0 | 2.0 | 0.00 | 0.01 | 0.01 | 89 | 1010.4 |
| 20260509222307 | 47 | 199 | 1.0 | 2.0 | 0.00 | 0.01 | 0.01 | 90 | 1010.5 |
| 20260509221804 | 47 | 13 | 1.0 | 2.0 | 0.00 | 0.01 | 0.01 | 89 | 1010.4 |
| 20260509215804 | 47 | 305 | 0.0 | 2.0 | 0.00 | 0.01 | 0.01 | 90 | 1010.7 |
| 20260509214304 | 47 | 317 | 1.0 | 2.0 | 0.00 | 0.01 | 0.01 | 92 | 1010.7 |
| 20260509213804 | 47 | 163 | 1.0 | 2.0 | 0.00 | 0.01 | 0.01 | 92 | 1010.4 |
| 20260509213304 | 46 | 313 | 0.0 | 2.0 | 0.00 | 0.01 | 0.01 | 92 | 1010.8 |
| 20260509212804 | 46 | 220 | 0.0 | 2.0 | 0.00 | 0.01 | 0.01 | 93 | 1010.8 |
| 20260509211803 | 46 | 93 | 1.0 | 2.0 | 0.01 | 0.01 | 0.01 | 93 | 1011.0 |
| 20260509210805 | 46 | 331 | 0.0 | 1.0 | 0.01 | 0.01 | 0.01 | 96 | 1011.1 |
| 20260509210304 | 46 | 303 | 0.0 | 5.0 | 0.01 | 0.01 | 0.01 | 96 | 1011.0 |
| 20260509205804 | 46 | 343 | 1.0 | 2.0 | 0.01 | 0.01 | 0.01 | 96 | 1011.1 |
| 20260509205307 | 46 | 331 | 0.0 | 0.0 | 0.01 | 0.01 | 0.01 | 96 | 1011.1 |
| 20260509204804 | 46 | 328 | 0.0 | 2.0 | 0.01 | 0.01 | 0.01 | 95 | 1011.0 |
| 20260509203804 | 46 | 254 | 0.0 | 3.0 | 0.01 | 0.01 | 0.01 | 95 | 1011.1 |
| 20260509203304 | 46 | 284 | 1.0 | 3.0 | 0.01 | 0.01 | 0.01 | 94 | 1011.2 |
| 20260509202804 | 46 | 311 | 1.0 | 1.0 | 0.01 | 0.01 | 0.01 | 96 | 1011.3 |
| 20260509202306 | 46 | 319 | 0.0 | 0.0 | 0.01 | 0.01 | 0.01 | 95 | 1011.0 |
| 20260509201804 | 46 | 319 | 0.0 | 0.0 | 0.00 | 0.00 | 0.00 | 95 | 1011.1 |
| 20260509200304 | 46 | 327 | 0.0 | 1.0 | 0.00 | 0.00 | 0.00 | 93 | 1011.3 |
| 20260509194803 | 47 | 306 | 0.0 | 1.0 | 0.00 | 0.00 | 0.00 | 92 | 1011.2 |
| 20260509193804 | 47 | 295 | 0.0 | 2.0 | 0.00 | 0.00 | 0.00 | 91 | 1011.1 |
| 20260509193304 | 46 | 281 | 1.0 | 2.0 | 0.00 | 0.00 | 0.00 | 91 | 1011.4 |
| 20260509192804 | 46 | 152 | 1.0 | 5.0 | 0.00 | 0.00 | 0.00 | 90 | 1011.4 |
| 20260509192306 | 46 | 163 | 2.0 | 3.0 | 0.00 | 0.00 | 0.00 | 89 | 1011.4 |
| 20260509191804 | 46 | 152 | 2.0 | 5.0 | 0.00 | 0.00 | 0.00 | 88 | 1011.5 |
| 20260509190304 | 47 | 60 | 1.0 | 5.0 | 0.00 | 0.00 | 0.00 | 86 | 1011.7 |
| 20260509185804 | 47 | 144 | 3.0 | 5.0 | 0.00 | 0.00 | 0.00 | 85 | 1011.8 |
| 20260509184803 | 47 | 115 | 3.0 | 7.0 | 0.00 | 0.00 | 0.00 | 86 | 1011.7 |
| 20260509184303 | 47 | 174 | 5.0 | 7.0 | 0.00 | 0.00 | 0.00 | 86 | 1011.8 |
| 20260509183804 | 47 | 78 | 2.0 | 5.0 | 0.00 | 0.00 | 0.00 | 86 | 1012.0 |
| 20260509183304 | 47 | 51 | 1.0 | 6.0 | 0.00 | 0.00 | 0.00 | 87 | 1012.1 |
| 20260509182804 | 47 | 180 | 1.0 | 5.0 | 0.00 | 0.00 | 0.00 | 88 | 1012.0 |
| 20260509182306 | 47 | 99 | 3.0 | 7.0 | 0.00 | 0.00 | 0.00 | 87 | 1012.0 |
| 20260509181304 | 47 | 158 | 2.0 | 7.0 | 0.00 | 0.00 | 0.00 | 87 | 1012.2 |
| 20260509180304 | 47 | 146 | 3.0 | 7.0 | 0.00 | 0.00 | 0.00 | 87 | 1012.2 |
| 20260509175804 | 47 | 130 | 3.0 | 7.0 | 0.00 | 0.00 | 0.00 | 87 | 1012.2 |
| 20260509175306 | 48 | 186 | 2.0 | 6.0 | 0.00 | 0.00 | 0.00 | 86 | 1012.2 |
| 20260509174804 | 48 | 149 | 2.0 | 6.0 | 0.00 | 0.00 | 0.00 | 85 | 1012.3 |
| 20260509174304 | 48 | 178 | 2.0 | 9.0 | 0.00 | 0.00 | 0.00 | 84 | 1012.5 |
| 20260509173803 | 48 | 44 | 3.0 | 10.0 | 0.00 | 0.00 | 0.00 | 84 | 1012.0 |
| 20260509173303 | 49 | 113 | 3.0 | 7.0 | 0.00 | 0.00 | 0.00 | 81 | 1012.2 |
| 20260509172804 | 49 | 150 | 3.0 | 12.0 | 0.00 | 0.00 | 0.00 | 78 | 1012.2 |
| 20260509172306 | 49 | 225 | 2.0 | 12.0 | 0.00 | 0.00 | 0.00 | 76 | 1012.2 |
| 20260509171804 | 50 | 137 | 4.0 | 13.0 | 0.00 | 0.00 | 0.00 | 74 | 1012.3 |
| 20260509171303 | 50 | 126 | 5.0 | 13.0 | 0.00 | 0.00 | 0.00 | 72 | 1012.2 |
| 20260509170804 | 51 | 184 | 3.0 | 9.0 | 0.00 | 0.00 | 0.00 | 68 | 1012.2 |
| 20260509165804 | 51 | 168 | 5.0 | 10.0 | 0.00 | 0.00 | 0.00 | 66 | 1012.1 |
| 20260509165306 | 51 | 157 | 5.0 | 10.0 | 0.00 | 0.00 | 0.00 | 66 | 1012.2 |
| 20260509164804 | 52 | 128 | 5.0 | 10.0 | 0.00 | 0.00 | 0.00 | 63 | 1012.2 |
| 20260509163804 | 53 | 210 | 5.0 | 10.0 | 0.00 | 0.00 | 0.00 | 59 | 1012.0 |
| 20260509163304 | 54 | 157 | 5.0 | 9.0 | 0.00 | 0.00 | 0.00 | 56 | 1012.2 |
| 20260509162804 | 54 | 182 | 5.0 | 9.0 | 0.00 | 0.00 | 0.00 | 54 | 1012.1 |
| 20260509162307 | 54 | 212 | 3.0 | 9.0 | 0.00 | 0.00 | 0.00 | 54 | 1012.3 |
| 20260509161804 | 54 | 251 | 3.0 | 8.0 | 0.00 | 0.00 | 0.00 | 50 | 1012.1 |
| 20260509161304 | 55 | 337 | 2.0 | 7.0 | 0.00 | 0.00 | 0.00 | 53 | 1012.2 |